カタログに戻る

COSMOS 2251 DEB

運用中LEO
NORAD 33980·DEBRIS·🇷🇺 Russia

打ち上げ Jun 16, 1993 から Plesetsk Cosmodrome

Loading…

次のパス (今後24時間)

TLE

最新Source: Space-Track

元期: Sep 14, 2026, 22:25 UTC

1 33980U 93036FP  26257.93440977  .00001904  00000-0  40004-3 0  9994
2 33980  74.0166 252.2771 0029953 321.2780  53.5798 14.60055782928246

AllMySatでCOSMOS 2251 DEBをリアルタイム追跡

Download on the App Store